Hourly Weather Prutz

Today, 8 August, Saturday

Time Temperature Precipitation Wind Pressure Humidity
00:00 +13°C° 0 mm 1 mps 638 mmHg 92%
01:00 +12°C° 0 mm 1 mps 638 mmHg 91%
02:00 +12°C° 0 mm 1 mps 638 mmHg 91%
03:00 +12°C° 0 mm 1 mps 638 mmHg 91%
04:00 +11°C° 0 mm 1 mps 638 mmHg 91%
05:00 +13°C° 0 mm 1 mps 639 mmHg 85%
06:00 +15°C° 0 mm 1 mps 639 mmHg 79%
07:00 +16°C° 0 mm 0 mps 640 mmHg 73%
08:00 +20°C° 0 mm 1 mps 641 mmHg 63%
09:00 +22°C° 0 mm 1 mps 641 mmHg 52%
10:00 +24°C° 0 mm 1 mps 642 mmHg 41%
11:00 +24°C° 0 mm 1 mps 642 mmHg 38%
12:00 +25°C° 0 mm 2 mps 642 mmHg 36%
13:00 +26°C° 0 mm 2 mps 642 mmHg 34%
14:00 +26°C° 0 mm 2 mps 641 mmHg 36%
15:00 +26°C° 0 mm 2 mps 641 mmHg 38%
16:00 +25°C° 0 mm 2 mps 641 mmHg 41%
17:00 +23°C° 0 mm 2 mps 640 mmHg 53%
18:00 +21°C° 0 mm 2 mps 640 mmHg 65%
19:00 +20°C° 0 mm 1 mps 639 mmHg 78%
20:00 +18°C° 0 mm 1 mps 639 mmHg 83%
21:00 +15°C° 0 mm 1 mps 638 mmHg 88%
22:00 +13°C° 0 mm 0 mps 638 mmHg 93%
23:00 +12°C° 0 mm 0 mps 638 mmHg 92%

Tomorrow, 9 August, Sunday

Time Temperature Precipitation Wind Pressure Humidity
00:00 +12°C° 0 mm 0 mps 638 mmHg 92%
01:00 +13°C° 0 mm 1 mps 637 mmHg 92%
02:00 +13°C° 0 mm 1 mps 637 mmHg 91%
03:00 +12°C° 0 mm 1 mps 637 mmHg 91%
04:00 +12°C° 0 mm 1 mps 637 mmHg 90%
05:00 +14°C° 0 mm 1 mps 637 mmHg 85%
06:00 +15°C° 0 mm 0 mps 638 mmHg 80%
07:00 +16°C° 0 mm 0 mps 639 mmHg 75%
08:00 +18°C° 0 mm 0 mps 639 mmHg 65%
09:00 +22°C° 0 mm 1 mps 640 mmHg 55%
10:00 +24°C° 0 mm 1 mps 640 mmHg 45%
11:00 +25°C° 0 mm 1 mps 640 mmHg 43%
12:00 +26°C° 0 mm 2 mps 640 mmHg 40%
13:00 +26°C° 0 mm 2 mps 640 mmHg 37%
14:00 +26°C° 0.1 mm 2 mps 640 mmHg 41%
15:00 +25°C° 0.1 mm 2 mps 639 mmHg 45%
16:00 +25°C° 0.1 mm 3 mps 639 mmHg 49%
17:00 +23°C° 0.6 mm 2 mps 638 mmHg 60%
18:00 +20°C° 0.6 mm 2 mps 638 mmHg 71%
19:00 +19°C° 0.6 mm 1 mps 637 mmHg 82%
20:00 +18°C° 0.1 mm 1 mps 637 mmHg 85%
21:00 +15°C° 0.1 mm 1 mps 636 mmHg 88%
22:00 +13°C° 0.1 mm 0 mps 636 mmHg 90%
23:00 +14°C° 0 mm 1 mps 636 mmHg 89%

Day after tomorrow, 10 August, Monday

Time Temperature Precipitation Wind Pressure Humidity
00:00 +14°C° 0 mm 1 mps 636 mmHg 89%
01:00 +14°C° 0 mm 1 mps 636 mmHg 88%
02:00 +13°C° 0 mm 1 mps 635 mmHg 88%
03:00 +13°C° 0 mm 1 mps 635 mmHg 88%
04:00 +13°C° 0 mm 1 mps 635 mmHg 88%
05:00 +14°C° 0 mm 1 mps 635 mmHg 84%
06:00 +16°C° 0 mm 1 mps 636 mmHg 80%
07:00 +18°C° 0 mm 1 mps 636 mmHg 77%
08:00 +20°C° 0 mm 1 mps 637 mmHg 68%
09:00 +22°C° 0 mm 1 mps 638 mmHg 59%
10:00 +24°C° 0 mm 1 mps 638 mmHg 50%
11:00 +25°C° 0.1 mm 1 mps 638 mmHg 47%
12:00 +26°C° 0.1 mm 1 mps 638 mmHg 43%
13:00 +27°C° 0.1 mm 1 mps 638 mmHg 40%
14:00 +26°C° 0.3 mm 2 mps 638 mmHg 44%
15:00 +25°C° 0.3 mm 2 mps 638 mmHg 48%
16:00 +25°C° 0.3 mm 2 mps 637 mmHg 52%
17:00 +23°C° 0.8 mm 2 mps 637 mmHg 62%
18:00 +21°C° 0.8 mm 1 mps 636 mmHg 73%
19:00 +17°C° 0.8 mm 0 mps 636 mmHg 84%
20:00 +16°C° 0.2 mm 0 mps 635 mmHg 85%
21:00 +15°C° 0.2 mm 0 mps 635 mmHg 85%
22:00 +14°C° 0.2 mm 0 mps 635 mmHg 86%
23:00 +14°C° 0 mm 1 mps 635 mmHg 86%

11 August, Tuesday

Time Temperature Precipitation Wind Pressure Humidity
00:00 +14°C° 0 mm 1 mps 635 mmHg 85%
01:00 +14°C° 0 mm 1 mps 635 mmHg 85%
02:00 +14°C° 0 mm 1 mps 635 mmHg 85%
03:00 +13°C° 0 mm 1 mps 635 mmHg 86%
04:00 +13°C° 0 mm 1 mps 635 mmHg 86%
05:00 +14°C° 0 mm 0 mps 635 mmHg 82%
06:00 +15°C° 0 mm 0 mps 636 mmHg 79%
07:00 +17°C° 0 mm 0 mps 636 mmHg 75%
08:00 +20°C° 0.3 mm 1 mps 637 mmHg 70%
09:00 +22°C° 0.3 mm 1 mps 638 mmHg 64%
10:00 +23°C° 0.3 mm 1 mps 638 mmHg 59%
11:00 +24°C° 1 mm 1 mps 638 mmHg 59%
12:00 +24°C° 1 mm 1 mps 638 mmHg 59%
13:00 +24°C° 1 mm 2 mps 638 mmHg 58%
14:00 +23°C° 1.7 mm 1 mps 638 mmHg 66%
15:00 +22°C° 1.7 mm 1 mps 637 mmHg 74%
16:00 +20°C° 1.7 mm 1 mps 637 mmHg 82%
17:00 +19°C° 1.9 mm 1 mps 636 mmHg 85%
18:00 +18°C° 1.9 mm 1 mps 636 mmHg 87%
19:00 +18°C° 1.9 mm 1 mps 636 mmHg 90%
20:00 +16°C° 0.2 mm 1 mps 636 mmHg 89%
21:00 +16°C° 0.2 mm 1 mps 636 mmHg 89%
22:00 +15°C° 0.2 mm 1 mps 636 mmHg 88%
23:00 +15°C° 0 mm 1 mps 636 mmHg 88%

12 August, Wednesday

Time Temperature Precipitation Wind Pressure Humidity
00:00 +14°C° 0 mm 1 mps 636 mmHg 88%
01:00 +14°C° 0 mm 1 mps 636 mmHg 87%
02:00 +13°C° 0 mm 1 mps 635 mmHg 87%
03:00 +13°C° 0 mm 1 mps 635 mmHg 87%
04:00 +12°C° 0 mm 0 mps 635 mmHg 86%
05:00 +13°C° 0 mm 0 mps 635 mmHg 83%
06:00 +15°C° 0 mm 0 mps 636 mmHg 79%
07:00 +16°C° 0 mm 0 mps 637 mmHg 75%
08:00 +18°C° 0.1 mm 0 mps 637 mmHg 69%
09:00 +20°C° 0.1 mm 0 mps 638 mmHg 63%
10:00 +24°C° 0.1 mm 1 mps 638 mmHg 57%
11:00 +24°C° 1 mm 1 mps 638 mmHg 57%
12:00 +24°C° 1 mm 1 mps 638 mmHg 58%
13:00 +24°C° 1 mm 1 mps 638 mmHg 59%
14:00 +24°C° 1.9 mm 1 mps 638 mmHg 63%
15:00 +23°C° 1.9 mm 1 mps 637 mmHg 67%
16:00 +21°C° 1.9 mm 2 mps 637 mmHg 72%
17:00 +21°C° 1.1 mm 1 mps 637 mmHg 77%
18:00 +20°C° 1.1 mm 1 mps 637 mmHg 82%
19:00 +17°C° 1.1 mm 0 mps 636 mmHg 86%
20:00 +16°C° 0.1 mm 0 mps 636 mmHg 87%
21:00 +16°C° 0.1 mm 1 mps 636 mmHg 87%
22:00 +15°C° 0.1 mm 1 mps 636 mmHg 87%
23:00 +15°C° 0 mm 1 mps 636 mmHg 87%

13 August, Thursday

Time Temperature Precipitation Wind Pressure Humidity
00:00 +14°C° 0 mm 1 mps 635 mmHg 86%
01:00 +14°C° 0 mm 1 mps 635 mmHg 86%
02:00 +14°C° 0 mm 1 mps 635 mmHg 86%
03:00 +13°C° 0 mm 1 mps 635 mmHg 86%
04:00 +13°C° 0 mm 1 mps 635 mmHg 86%
05:00 +15°C° 0 mm 1 mps 635 mmHg 82%
06:00 +16°C° 0 mm 1 mps 636 mmHg 78%
07:00 +19°C° 0 mm 1 mps 637 mmHg 75%
08:00 +21°C° 0 mm 1 mps 637 mmHg 66%
09:00 +22°C° 0 mm 1 mps 638 mmHg 58%
10:00 +24°C° 0 mm 1 mps 638 mmHg 50%
11:00 +25°C° 0.1 mm 1 mps 638 mmHg 48%
12:00 +25°C° 0.1 mm 1 mps 638 mmHg 46%
13:00 +26°C° 0.1 mm 2 mps 638 mmHg 44%
14:00 +24°C° 1 mm 2 mps 638 mmHg 56%
15:00 +21°C° 1 mm 2 mps 637 mmHg 68%
16:00 +19°C° 1 mm 2 mps 636 mmHg 81%
17:00 +18°C° 3.1 mm 2 mps 636 mmHg 85%
18:00 +16°C° 3.1 mm 2 mps 636 mmHg 90%
19:00 +15°C° 3.1 mm 1 mps 636 mmHg 95%
20:00 +15°C° 0.6 mm 2 mps 636 mmHg 94%
21:00 +15°C° 0.6 mm 2 mps 636 mmHg 93%
22:00 +14°C° 0.6 mm 2 mps 636 mmHg 92%
23:00 +14°C° 0.1 mm 2 mps 636 mmHg 90%
Show more